Weather History for Amsterdam, Netherlands

Change the Weather History Date:

Sunday, March 10, 2013

  Actual Average Record
Temperature  
Mean Temperature 32 °F -  
Max Temperature 33 °F 50 °F 63 °F (2014)
Min Temperature 30 °F 37 °F 30 °F (2013)
Degree Days  
Heating Degree Days 34    
Moisture  
Dew Point 28 °F    
Average Humidity 82    
Maximum Humidity 100    
Minimum Humidity 61    
Precipitation  
Precipitation 0.00 in - - ()
Sea Level Pressure  
Sea Level Pressure 29.63 in    
Wind  
Wind Speed 11 mph ()    
Max Wind Speed 20 mph    
Max Gust Speed 30 mph    
Visibility 5.7 miles    
Events Rain , Snow    
Averages and records for this station are not official NWS values.
T = Trace of Precipitation, MM = Missing Value Source: Averaged Metar Reports

Daily Weather History Graph

Daily Weather History Graph

Search for Another Location

Airport:

Trip Planner

Search our weather history database for the weather conditions in past years. The results will help you decide how hot, cold, wet, or windy it might be!

Date:

Astronomy

Mar. 10, 2013 Rise Set
Actual Time 7:06 AM CET 6:36 PM CET
Civil Twilight 6:32 AM CET 7:10 PM CET
Nautical Twilight 5:53 AM CET 7:49 PM CET
Astronomical Twilight 5:13 AM CET 8:30 PM CET
Moon 6:04 AM CET (3/10) 5:23 PM CET (3/10)
Length of Visible Light 12h 37m
Length of Day
11h 30m
Waning Crescent, 2% of the Moon is Illuminated
Mar 10
Waning Crescent
Mar 11
New
Mar 19
First Quarter
Mar 27
Full
Apr 3
Last Quarter

Hourly Weather History & Observations

Time (CET) Temp. Windchill Dew Point Humidity Pressure Visibility Wind Dir Wind Speed Gust Speed Precip Events Conditions
12:25 AM 33.8 °F 29.6 °F 32.0 °F 93% 29.53 in 1.2 mi North 4.6 mph - N/A Snow Light Snow
12:55 AM 33.8 °F 28.6 °F 32.0 °F 93% 29.53 in 1.2 mi North 5.8 mph - N/A Snow Light Snow
1:00 AM 33 °F - 32 °F 96% 29.55 in 2 mi North 6.7 mph - - Snow Light Snow
1:25 AM 33.8 °F 27.7 °F 32.0 °F 93% 29.53 in 1.7 mi North 6.9 mph - N/A Snow Light Snow
1:55 AM 33.8 °F 27.0 °F 32.0 °F 93% 29.53 in 2.2 mi North 8.1 mph - N/A Snow Light Snow
2:25 AM 33.8 °F 27.0 °F 32.0 °F 93% 29.53 in - North 8.1 mph - N/A Rain Rain
2:55 AM 33.8 °F 27.0 °F 32.0 °F 93% 29.53 in 1.8 mi North 8.1 mph - N/A Rain Rain
3:25 AM 33.8 °F 27.0 °F 32.0 °F 93% 29.53 in 1.8 mi North 8.1 mph - N/A Snow Light Snow
3:55 AM 33.8 °F 25.3 °F 32.0 °F 93% 29.53 in - NNE 11.5 mph - N/A Snow Light Snow
4:00 AM 33 °F - 32 °F 92% 29.56 in 2 mi NNE 11.2 mph - - Snow Snow Grains
4:25 AM 32.0 °F 23.6 °F 32.0 °F 100% 29.53 in - NNE 10.4 mph - N/A Snow Light Snow
4:55 AM 32.0 °F 22.1 °F 32.0 °F 100% 29.56 in 3.1 mi NNE 13.8 mph - N/A Snow Light Snow Grains
5:25 AM 33.8 °F 24.8 °F 32.0 °F 93% 29.53 in 4.3 mi NNE 12.7 mph - N/A   Mostly Cloudy
5:55 AM 33.8 °F 24.8 °F 30.2 °F 87% 29.56 in 5.6 mi NNE 12.7 mph - N/A   Mostly Cloudy
6:25 AM 33.8 °F 24.8 °F 30.2 °F 87% 29.56 in 3.7 mi NNE 12.7 mph - N/A Snow Light Snow
6:55 AM 33.8 °F 24.8 °F 30.2 °F 87% 29.56 in 4.3 mi NNE 12.7 mph - N/A Snow Light Snow
7:25 AM 33.8 °F 25.3 °F 30.2 °F 87% 29.56 in 6.2 mi NNE 11.5 mph - N/A   Mostly Cloudy
7:55 AM 33.8 °F 23.9 °F 30.2 °F 87% 29.56 in 6.2 mi NNE 15.0 mph - N/A   Mostly Cloudy
8:25 AM 33.8 °F 23.9 °F 30.2 °F 87% 29.59 in 6.2 mi NNE 15.0 mph - N/A   Mostly Cloudy
8:55 AM 33.8 °F 23.5 °F 30.2 °F 87% 29.59 in 6.2 mi NNE 16.1 mph - N/A   Mostly Cloudy
9:25 AM 33.8 °F 23.5 °F 28.4 °F 81% 29.59 in 6.2 mi NNE 16.1 mph - N/A   Mostly Cloudy
9:55 AM 32.0 °F 20.5 °F 28.4 °F 87% 29.59 in 6.2 mi NNE 18.4 mph - N/A   Mostly Cloudy
10:25 AM 32.0 °F 20.8 °F 28.4 °F 87% 29.62 in 6.2 mi NNE 17.3 mph - N/A   Overcast
10:55 AM 32.0 °F 21.2 °F 28.4 °F 87% 29.62 in 6.2 mi NNE 16.1 mph - N/A   Overcast
11:25 AM 32.0 °F 20.8 °F 28.4 °F 87% 29.62 in 6.2 mi NNE 17.3 mph - N/A   Mostly Cloudy
11:55 AM 32.0 °F 22.1 °F 28.4 °F 87% 29.62 in 6.2 mi NE 13.8 mph - N/A   Mostly Cloudy
12:25 PM 33.8 °F 22.8 °F 28.4 °F 81% 29.65 in 6.2 mi NE 18.4 mph 29.9 mph N/A   Mostly Cloudy
12:55 PM 33.8 °F 23.2 °F 26.6 °F 75% 29.65 in 6.2 mi NE 17.3 mph - N/A   Mostly Cloudy
1:00 PM 33 °F - 28 °F 73% 29.66 in 7 mi NE 17.9 mph - -   Partly Cloudy
1:25 PM 32.0 °F 20.8 °F 26.6 °F 80% 29.65 in 6.2 mi NE 17.3 mph - N/A   Mostly Cloudy
1:55 PM 32.0 °F 21.2 °F 26.6 °F 80% 29.65 in 6.2 mi NE 16.1 mph - N/A   Mostly Cloudy
2:25 PM 33.8 °F 24.3 °F 26.6 °F 75% 29.65 in 6.2 mi NE 13.8 mph - N/A   Mostly Cloudy
2:55 PM 33.8 °F 23.5 °F 26.6 °F 75% 29.65 in 6.2 mi NNE 16.1 mph - N/A   Mostly Cloudy
3:25 PM 33.8 °F 23.9 °F 26.6 °F 75% 29.65 in 6.2 mi NE 15.0 mph - N/A   Mostly Cloudy
3:55 PM 33.8 °F 23.9 °F 26.6 °F 75% 29.68 in 6.2 mi NNE 15.0 mph - N/A   Mostly Cloudy
4:00 PM 33 °F - 26 °F 67% 29.68 in 12 mi NE 13.4 mph - -   Overcast
4:25 PM 32.0 °F 21.2 °F 24.8 °F 75% 29.68 in 6.2 mi NE 16.1 mph - N/A   Mostly Cloudy
4:55 PM 32.0 °F 20.8 °F 24.8 °F 75% 29.68 in 6.2 mi NE 17.3 mph - N/A   Mostly Cloudy
5:25 PM 32.0 °F 21.6 °F 26.6 °F 80% 29.68 in 6.2 mi NE 15.0 mph - N/A   Mostly Cloudy
5:55 PM 32.0 °F 20.8 °F 24.8 °F 75% 29.68 in 6.2 mi NE 17.3 mph - N/A   Mostly Cloudy
6:25 PM 32.0 °F 20.8 °F 24.8 °F 75% 29.68 in 6.2 mi NE 17.3 mph - N/A   Mostly Cloudy
6:55 PM 32.0 °F 21.2 °F 24.8 °F 75% 29.71 in 6.2 mi NE 16.1 mph - N/A   Mostly Cloudy
7:00 PM 32 °F - 25 °F 65% 29.73 in 22 mi NE 15.7 mph - -   Partly Cloudy
7:25 PM 32.0 °F 21.6 °F 24.8 °F 75% 29.71 in 6.2 mi NE 15.0 mph - N/A   Mostly Cloudy
7:55 PM 32.0 °F 20.8 °F 24.8 °F 75% 29.71 in 6.2 mi NE 17.3 mph - N/A   Mostly Cloudy
8:25 PM 32.0 °F 21.2 °F 24.8 °F 75% 29.71 in 6.2 mi NE 16.1 mph - N/A   Mostly Cloudy
8:55 PM 32.0 °F 21.2 °F 23.0 °F 69% 29.71 in 6.2 mi NE 16.1 mph - N/A   Mostly Cloudy
9:25 PM 32.0 °F 20.5 °F 23.0 °F 69% 29.71 in 6.2 mi NE 18.4 mph - N/A   Mostly Cloudy
9:55 PM 32.0 °F 20.1 °F 23.0 °F 69% 29.74 in 6.2 mi ENE 19.6 mph - N/A Snow Light Snow Grains
10:00 PM 31 °F - 23 °F 61% 29.75 in 19 mi ENE 15.7 mph - - Snow Snow Grains
10:25 PM 30.2 °F 19.3 °F 21.2 °F 69% 29.74 in 6.2 mi ENE 15.0 mph - N/A Snow Light Snow Grains
10:55 PM 30.2 °F 19.8 °F 23.0 °F 75% 29.74 in 6.2 mi East 13.8 mph - N/A Snow Light Snow Grains
11:25 PM 30.2 °F 18.5 °F 24.8 °F 80% 29.74 in 6.2 mi NE 17.3 mph - N/A Snow Light Snow Grains
11:55 PM 30.2 °F 18.9 °F 24.8 °F 80% 29.74 in 6.2 mi ENE 16.1 mph - N/A Snow Light Snow Grains